Wind_Speed
48 55 56 52 47 53 44 55 44 58 62 57 53 45 47 45 46 45 42 40 40 40 38 35 32 29 27 26 25 25 26 25 24 23 22 21 18 16
38 52 58 44 54 53 55 45 47 51 58 52 49 48 48 47 44 45 44 42 42 42 41 38 35 31 29 28 28 27 27 26 26 25 24 22 21 19
31 41 52 59 49 44 48 40 44 25 59 51 51 48 45 47 51 45 46 45 43 43 42 39 36 33 30 30 29 28 28 28 28 27 25 24 22 21
26 33 42 50 58 58 48 53 55 48 39 59 53 48 48 46 45 49 47 46 42 42 40 40 38 36 34 32 31 31 30 30 29 29 28 27 25 24
20 26 36 46 50 42 39 34 47 49 39 31 49 54 48 50 45 47 48 45 42 39 39 40 40 39 37 35 34 33 32 32 31 31 30 29 27 25
16 22 27 39 46 46 55 40 55 50 45 41 43 51 48 45 46 47 49 49 47 45 42 42 42 42 41 40 38 37 35 34 34 33 31 30 30 28
13 19 20 36 42 39 32 45 42 55 48 49 46 55 56 46 43 44 45 45 46 47 44 45 46 46 45 43 42 41 39 37 36 34 34 32 31 30
9 15 22 22 50 49 42 33 46 48 41 50 53 53 55 62 58 46 42 47 51 50 46 47 48 48 47 46 42 41 40 39 38 37 36 34 33 32
11 10 22 22 33 48 51 49 39 40 40 35 42 50 53 55 52 41 46 55 51 50 49 48 50 50 48 47 44 42 42 42 41 40 39 37 36 35
15 10 10 27 26 39 49 54 47 40 49 44 33 43 49 67 53 56 59 47 51 45 47 50 49 48 48 47 46 45 46 47 46 44 43 42 40 39
14 14 11 12 28 30 45 46 54 54 51 54 53 48 45 45 50 57 60 61 54 46 49 48 51 47 48 49 49 50 50 50 49 47 45 44 43 42
13 13 14 12 13 26 36 39 53 55 49 51 55 49 45 42 42 52 60 63 49 59 57 56 56 52 55 54 53 53 53 52 51 51 49 47 47 47
15 13 12 11 10 11 23 38 44 52 51 50 53 53 51 53 52 52 57 70 66 56 59 60 60 61 59 59 58 56 55 53 53 53 52 51 50 50
15 16 13 14 8 7 11 20 37 44 45 47 46 52 54 51 52 56 54 53 53 58 64 61 59 65 66 61 56 59 60 58 57 56 55 54 54 54
16 16 16 16 13 7 6 11 16 26 36 38 46 47 48 51 51 52 56 57 58 56 59 69 56 52 56 65 61 60 58 59 61 61 60 60 59 59
18 17 16 17 16 11 8 6 9 12 20 25 33 45 44 44 54 51 52 58 59 61 55 61 69 57 48 52 54 62 68 64 59 59 60 61 62 63
19 17 13 12 14 13 9 7 4 7 11 17 24 31 40 41 42 50 51 52 58 66 60 55 62 64 73 60 56 55 52 53 58 58 62 63 62 61
18 15 14 13 12 13 11 10 9 4 2 10 15 22 29 35 37 39 43 50 49 53 61 61 62 58 74 71 67 57 57 58 52 53 58 63 65 67
18 17 14 13 13 12 11 11 11 10 7 3 3 12 20 25 32 37 39 45 49 53 56 60 57 51 50 65 68 68 64 66 62 66 60 61 60 58
20 19 17 15 13 12 11 10 11 11 10 8 5 2 5 14 20 25 30 35 41 45 50 53 60 53 56 46 51 57 67 66 63 55 60 72 68 70
18 18 18 17 15 14 13 12 10 10 10 11 9 7 5 2 6 12 17 21 27 32 36 37 49 52 50 51 52 49 47 48 55 63 65 56 53 55
17 17 16 17 17 16 14 13 13 10 7 7 9 9 7 6 7 6 7 10 12 15 21 24 33 38 39 45 50 51 54 55 54 54 61 65 63 63
16 16 16 15 15 15 15 15 13 13 12 9 7 7 8 8 7 8 9 10 10 11 10 12 17 23 24 29 35 39 41 42 44 47 50 51 51 54
Wind_Direction
232 225 224 226 228 223 236 235 239 221 218 216 223 225 228 227 229 227 224 225 228 227 225 223 222 221 218 220 220 218 215 213 213 213 214 217 221 226
231 228 222 221 225 233 233 238 217 221 222 220 222 225 227 228 231 233 227 223 224 228 226 225 224 223 222 220 220 219 218 216 216 218 218 220 225 230
234 227 226 224 225 225 228 228 204 192 215 224 224 223 228 229 231 232 228 226 227 226 226 225 225 225 224 223 221 220 219 219 219 220 222 224 226 233
237 229 223 225 220 229 234 229 231 232 232 218 223 218 221 224 226 229 230 225 222 225 225 226 225 225 226 224 222 221 220 221 221 223 225 228 229 234
245 234 223 219 220 211 214 215 221 213 209 200 212 221 216 219 221 221 229 228 224 220 222 223 225 226 227 227 225 223 223 223 224 227 230 233 237 241
251 233 231 216 212 220 219 227 235 228 225 208 203 195 204 206 213 218 222 227 227 224 218 219 222 226 228 228 227 226 225 226 227 229 232 236 241 245
251 234 238 222 211 207 215 227 232 241 241 236 217 207 206 209 210 213 219 225 230 230 226 221 222 225 229 230 228 227 226 227 229 232 235 238 243 248
269 240 233 238 212 203 207 203 215 227 234 240 214 208 209 218 223 215 215 219 226 227 226 225 224 226 229 233 233 232 231 232 233 235 239 243 246 250
316 259 232 237 222 214 209 209 218 208 219 233 233 217 213 205 202 206 221 224 227 230 232 228 226 228 230 231 233 233 232 234 237 238 241 244 247 251
330 314 260 235 233 225 218 215 217 219 235 224 218 234 229 208 218 214 218 221 212 219 227 232 228 227 227 229 231 231 231 233 237 238 240 243 246 249
341 331 306 254 236 237 223 219 225 226 232 227 225 229 230 238 231 227 215 225 224 218 225 230 231 231 228 227 228 230 232 235 237 239 241 245 248 251
344 334 331 301 249 236 233 236 226 232 232 221 225 227 222 215 224 230 226 226 218 224 229 238 238 238 236 231 229 229 232 234 238 241 242 244 247 250
359 342 339 324 296 255 237 231 227 228 233 234 230 227 229 229 228 229 227 221 222 228 231 237 239 241 242 239 234 235 236 236 238 241 244 246 246 249
4 5 347 351 324 283 246 235 227 229 231 232 231 232 231 232 234 234 231 229 228 230 229 236 238 243 246 245 238 235 237 239 241 241 243 246 248 249
12 11 359 350 352 325 288 249 247 235 230 231 230 229 233 236 234 234 233 233 231 234 230 234 233 234 238 243 247 244 244 242 242 244 245 246 248 251
10 12 4 357 353 357 340 292 250 241 238 235 229 226 235 238 232 240 236 234 237 236 238 230 229 233 232 233 241 251 246 249 248 247 247 247 248 251
8 1 360 355 353 350 349 350 307 247 230 225 231 230 232 233 243 237 239 237 237 238 245 242 240 239 233 241 238 245 236 245 243 249 250 250 249 251
4 360 5 12 10 4 356 349 351 334 269 230 226 227 235 236 238 244 248 235 240 240 240 251 250 251 241 240 234 245 246 252 247 249 253 253 249 256
4 6 6 10 17 17 11 4 353 350 356 319 231 229 228 230 233 239 243 242 239 241 246 246 246 248 249 249 244 247 247 253 256 255 258 256 259 248
12 13 12 9 8 9 8 10 11 1 347 343 333 303 223 228 229 227 230 232 233 236 243 236 240 245 243 243 244 246 247 254 255 259 257 252 254 263
10 13 13 13 11 7 2 357 1 3 3 354 341 327 312 268 225 215 221 219 221 225 227 232 241 244 243 243 245 244 246 247 250 252 253 247 248 255
2 6 8 9 11 9 5 359 357 356 350 353 352 346 329 304 293 285 262 241 226 218 220 222 227 235 237 242 246 248 248 250 253 253 251 251 254 257
349 353 359 4 6 7 7 3 1 0 352 347 340 342 344 341 305 282 277 280 274 263 265 260 229 224 231 233 236 237 240 242 245 249 251 253 255 258
Height
3005 3012 3019 3030 3036 3044 3052 3056 3060 3068 3074 3087 3095 3104 3111 3117 3123 3130 3137 3142 3147 3152 3157 3163 3167 3171 3175 3179 3183 3187 3191 3195 3199 3202 3204 3207 3210 3212
2995 3002 3010 3017 3027 3033 3040 3045 3052 3059 3067 3079 3088 3097 3104 3108 3115 3121 3128 3136 3141 3145 3150 3156 3161 3165 3170 3174 3178 3182 3186 3190 3194 3197 3200 3203 3205 3208
2984 2990 2998 3009 3018 3024 3029 3036 3041 3038 3057 3068 3078 3086 3093 3099 3105 3112 3119 3126 3132 3139 3145 3150 3155 3159 3164 3168 3172 3176 3180 3184 3188 3192 3195 3198 3200 3203
2976 2980 2988 2996 3007 3013 3021 3026 3028 3034 3041 3056 3069 3075 3081 3089 3096 3103 3109 3116 3123 3131 3139 3143 3148 3152 3157 3161 3166 3170 3174 3178 3182 3186 3189 3192 3195 3197
2970 2972 2978 2986 2995 3004 3011 3015 3020 3028 3030 3034 3052 3065 3072 3080 3085 3091 3098 3107 3114 3122 3128 3135 3140 3144 3149 3154 3158 3163 3167 3172 3176 3180 3184 3187 3190 3193
2965 2966 2969 2976 2985 2993 3000 3006 3012 3018 3026 3033 3039 3049 3060 3069 3074 3080 3086 3094 3103 3109 3117 3123 3130 3136 3140 3145 3150 3155 3160 3164 3169 3173 3177 3180 3183 3186
2961 2962 2964 2968 2975 2984 2992 2997 3004 3010 3016 3023 3033 3041 3049 3058 3064 3073 3079 3087 3094 3100 3107 3112 3119 3125 3130 3136 3141 3145 3151 3157 3162 3166 3169 3173 3176 3179
2957 2957 2959 2962 2967 2975 2982 2990 2997 3003 3009 3016 3023 3029 3038 3047 3057 3065 3070 3073 3078 3087 3096 3103 3108 3114 3122 3127 3134 3140 3145 3150 3154 3158 3162 3165 3169 3172
2955 2953 2954 2956 2960 2966 2975 2982 2988 2994 2999 3007 3012 3017 3027 3036 3047 3051 3058 3066 3070 3080 3086 3094 3099 3104 3111 3118 3125 3131 3136 3140 3145 3149 3152 3156 3159 3163
2952 2950 2951 2952 2954 2959 2966 2972 2977 2983 2989 2999 3003 3010 3016 3023 3027 3039 3046 3045 3056 3068 3074 3078 3087 3094 3102 3108 3115 3120 3124 3129 3133 3138 3142 3145 3149 3152
2952 2949 2947 2948 2949 2952 2958 2962 2969 2972 2979 2986 2993 3001 3005 3012 3017 3023 3032 3040 3046 3051 3061 3069 3076 3084 3090 3097 3102 3107 3112 3116 3121 3126 3131 3135 3139 3142
2951 2949 2947 2945 2945 2947 2950 2955 2959 2964 2969 2975 2984 2991 2998 3005 3009 3014 3020 3025 3032 3042 3051 3058 3065 3072 3074 3082 3089 3095 3099 3104 3109 3114 3118 3123 3126 3128
2950 2948 2946 2944 2942 2943 2945 2948 2951 2956 2960 2967 2975 2981 2988 2992 2996 3003 3009 3015 3022 3030 3038 3046 3052 3056 3061 3068 3076 3083 3088 3094 3097 3102 3106 3110 3113 3115
2949 2946 2944 2942 2940 2939 2939 2939 2943 2947 2952 2958 2964 2970 2976 2980 2985 2992 2997 3003 3010 3015 3026 3034 3036 3043 3048 3053 3061 3069 3074 3080 3084 3089 3093 3096 3098 3101
2949 2946 2945 2942 2939 2937 2935 2936 2937 2939 2943 2948 2954 2959 2963 2969 2975 2980 2984 2990 2998 3005 3012 3017 3022 3028 3034 3037 3046 3054 3060 3064 3070 3074 3078 3081 3085 3088
2952 2948 2945 2942 2940 2938 2936 2935 2935 2935 2937 2940 2942 2948 2953 2958 2963 2967 2973 2980 2985 2992 2996 3002 3010 3013 3019 3024 3031 3034 3043 3047 3054 3057 3062 3065 3068 3072
2953 2950 2946 2944 2941 2938 2937 2936 2935 2934 2933 2932 2934 2937 2942 2946 2950 2954 2961 2967 2973 2980 2983 2988 2993 2998 3007 3009 3015 3016 3021 3030 3035 3040 3043 3047 3050 3056
2954 2950 2946 2942 2940 2937 2936 2934 2933 2931 2930 2929 2928 2929 2932 2936 2939 2943 2947 2953 2959 2964 2970 2975 2980 2984 2988 2994 3000 3003 3010 3015 3019 3022 3025 3029 3034 3039
2955 2951 2947 2944 2941 2939 2937 2934 2932 2930 2928 2926 2925 2925 2925 2928 2930 2933 2936 2940 2945 2951 2957 2961 2967 2971 2974 2978 2985 2990 2994 2999 3002 3007 3009 3012 3015 3021
2957 2952 2949 2946 2943 2941 2939 2936 2932 2930 2927 2925 2923 2922 2922 2923 2924 2926 2929 2932 2936 2939 2944 2947 2953 2957 2962 2965 2969 2972 2978 2982 2987 2989 2992 2996 2999 3004
2958 2955 2951 2948 2945 2942 2939 2937 2934 2931 2928 2926 2924 2923 2922 2921 2921 2922 2925 2926 2927 2929 2931 2935 2940 2944 2949 2952 2955 2956 2962 2966 2970 2974 2978 2981 2985 2988
2960 2956 2953 2949 2946 2943 2940 2938 2935 2931 2930 2928 2927 2925 2921 2920 2920 2920 2920 2921 2921 2922 2925 2925 2928 2932 2936 2937 2939 2942 2946 2950 2954 2958 2961 2966 2969 2971
2960 2956 2953 2951 2947 2944 2941 2937 2935 2932 2930 2928 2926 2924 2923 2920 2919 2917 2917 2917 2917 2918 2918 2918 2918 2921 2925 2925 2926 2929 2932 2935 2938 2943 2946 2949 2951 2953